Seattle, WA

4:52 PM PDT on August 19, 2017 (GMT -0700)
Seattle-Tacoma International

Weather History for KSEA - October, 2006

Change the Weather History Date:

Monday, October 9, 2006

  Actual Average Record
Temperature  
Mean Temperature 56 °F 55 °F  
Max Temperature 65 °F 62 °F 79 °F (1996)
Min Temperature 47 °F 47 °F 35 °F (1960)
Degree Days  
Heating Degree Days 9 10  
Month to date heating degree days 83 82  
Since 1 July heating degree days 257 299  
Cooling Degree Days 0 0  
Month to date cooling degree days 0 0  
Year to date cooling degree days 270 189  
Growing Degree Days 5 (Base 50)    
Moisture  
Dew Point 45 °F    
Average Humidity 70    
Maximum Humidity 100    
Minimum Humidity 40    
Precipitation  
Precipitation 0.00 in 0.09 in 1.27 in (1953)
Month to date precipitation 0.02 0.70  
Year to date precipitation 23.96 22.79  
Snow  
Snow 0.00 in - - ()
Month to date snowfall  
Since 1 July snowfall  
Snow Depth -    
Sea Level Pressure  
Sea Level Pressure 30.36 in    
Wind  
Wind Speed 13 mph (NNE)    
Max Wind Speed 20 mph    
Max Gust Speed 23 mph    
Visibility 7 miles    
Events Fog    
T = Trace of Precipitation, MM = Missing Value Source: NWS Daily Summary

Daily Weather History Graph

Daily Weather History Graph

Search for Another Location

Airport or City:

Trip Planner

Search our weather history database for the weather conditions in past years. The results will help you decide how hot, cold, wet, or windy it might be!

Date:

Astronomy

Oct. 09, 2006 Rise Set
Actual Time 7:19 AM PDT 6:32 PM PDT
Civil Twilight 6:48 AM PDT 7:03 PM PDT
Nautical Twilight 6:13 AM PDT 7:38 PM PDT
Astronomical Twilight 5:37 AM PDT 8:14 PM PDT
Moon 7:36 PM PDT (10/9) 10:58 AM PDT (10/9)
Length of Visible Light 12h 14m
Length of Day
11h 13m
Waning Gibbous, 90% of the Moon is Illuminated
Oct 9
Waning Gibbous
Oct 13
Last Quarter
Oct 21
New
Oct 29
First Quarter
Nov 5
Full

Hourly Weather History & Observations

Time (PDT) Temp. Windchill Dew Point Humidity Pressure Visibility Wind Dir Wind Speed Gust Speed Precip Events Conditions
12:53 AM 48.9 °F - 46.0 °F 90% 30.38 in 10.0 mi NNE 12.7 mph - N/A   Clear
1:49 AM 48.2 °F - 46.4 °F 93% 30.36 in 10.0 mi NNE 12.7 mph - N/A   Scattered Clouds
1:53 AM 48.9 °F - 46.9 °F 93% 30.39 in 10.0 mi North 13.8 mph - N/A   Scattered Clouds
2:33 AM 48.2 °F - 46.4 °F 93% 30.37 in 7.0 mi NNE 12.7 mph - N/A   Mostly Cloudy
2:46 AM 48.2 °F - 46.4 °F 93% 30.36 in 7.0 mi NNE 12.7 mph - N/A   Mostly Cloudy
2:53 AM 48.9 °F - 46.9 °F 93% 30.39 in 6.0 mi NNE 12.7 mph - N/A   Scattered Clouds
3:07 AM 48.2 °F - 46.4 °F 93% 30.37 in 6.0 mi NNE 12.7 mph - N/A   Mostly Cloudy
3:33 AM 48.2 °F - 46.4 °F 93% 30.37 in 2.5 mi NNE 13.8 mph - N/A   Overcast
3:53 AM 48.0 °F - 46.9 °F 96% 30.40 in 2.5 mi NNE 15.0 mph - N/A   Overcast
4:15 AM 46.4 °F 40.1 °F 46.4 °F 100% 30.37 in 0.2 mi NNE 15.0 mph - N/A   Overcast
4:53 AM 46.9 °F - 46.0 °F 97% 30.40 in 0.2 mi NNE 13.8 mph - N/A Fog Fog
5:40 AM 46.4 °F 40.4 °F 46.4 °F 100% 30.38 in 0.2 mi North 13.8 mph - N/A Fog Fog
5:53 AM 46.9 °F - 46.9 °F 100% 30.41 in 0.2 mi North 11.5 mph - N/A Fog Fog
6:53 AM 46.9 °F - 46.9 °F 100% 30.41 in 0.2 mi North 11.5 mph - N/A   Overcast
7:53 AM 46.9 °F - 46.0 °F 97% 30.43 in 0.2 mi North 13.8 mph - N/A   Mist
8:26 AM 46.4 °F 40.4 °F 46.4 °F 100% 30.40 in 0.2 mi North 13.8 mph - N/A   Overcast
8:40 AM 48.2 °F - 46.4 °F 93% 30.40 in 1.5 mi NNE 12.7 mph - N/A   Mostly Cloudy
8:44 AM 48.2 °F - 44.6 °F 87% 30.40 in 5.0 mi NNE 13.8 mph - N/A   Scattered Clouds
8:53 AM 48.0 °F - 45.0 °F 89% 30.43 in 7.0 mi North 13.8 mph - N/A   Scattered Clouds
9:53 AM 52.0 °F - 45.0 °F 77% 30.42 in 10.0 mi North 10.4 mph - N/A   Scattered Clouds
10:53 AM 55.0 °F - 45.0 °F 69% 30.41 in 10.0 mi North 12.7 mph - N/A   Scattered Clouds
11:53 AM 59.0 °F - 44.1 °F 58% 30.40 in 10.0 mi North 11.5 mph - N/A   Scattered Clouds
12:53 PM 61.0 °F - 45.0 °F 56% 30.38 in 10.0 mi North 13.8 mph - N/A   Scattered Clouds
1:53 PM 63.0 °F - 45.0 °F 52% 30.36 in 10.0 mi North 13.8 mph - N/A   Scattered Clouds
2:53 PM 64.0 °F - 39.9 °F 41% 30.34 in 10.0 mi North 15.0 mph - N/A   Partly Cloudy
3:53 PM 64.0 °F - 42.1 °F 45% 30.32 in 10.0 mi North 15.0 mph - N/A   Partly Cloudy
4:53 PM 64.0 °F - 41.0 °F 43% 30.30 in 10.0 mi North 15.0 mph - N/A   Partly Cloudy
5:53 PM 61.0 °F - 41.0 °F 48% 30.28 in 10.0 mi North 12.7 mph - N/A   Partly Cloudy
6:53 PM 57.0 °F - 43.0 °F 59% 30.28 in 10.0 mi NNE 17.3 mph - N/A   Partly Cloudy
7:53 PM 55.9 °F - 43.0 °F 62% 30.27 in 10.0 mi NNE 16.1 mph - N/A   Partly Cloudy
8:53 PM 54.0 °F - 43.0 °F 66% 30.28 in 10.0 mi North 9.2 mph - N/A   Clear
9:53 PM 53.1 °F - 43.0 °F 69% 30.27 in 10.0 mi North 8.1 mph - N/A   Clear
10:53 PM 52.0 °F - 42.1 °F 69% 30.28 in 10.0 mi NNE 11.5 mph - N/A   Clear
11:53 PM 51.1 °F - 42.1 °F 71% 30.27 in 10.0 mi North 8.1 mph - N/A   Partly Cloudy